Location: Horowhenua
(40.7500°S, 175.3333°E)
Time: 06:09:51
(UTC+00:00)

Cosmos 1703 Rocket - Pass Details

Date: 28 January 2023
Orbit: 605 x 631 km, 82.5° (Epoch: 01 April)

Event Time Altitude Azimuth Distance (km) Brightness Sun altitude
Exits shadow 16:06:34 19° 311° (NW) 1,499 4.9 -12.9°
Maximum altitude 16:09:09 35° 257° (WSW) 1,036 4.4 -12.5°
Drops below altitude 10° 16:13:20 10° 190° (S) 2,050 6.6 -11.8°
Sets 16:15:46 0° 181° (S) 2,967 7.6 -11.5°
